Regional Weather Roundup
Issued by NWS

Home | Current Version | Previous Version | Text Only | Print | Product List | Glossary On
Versions: 1 2 3 4 5 6 7 8 9 10 11 12 13 14 15 16 17 18 19 20 21 22 23 24 25 26 27 28 29 30 31 32 33 34 35 36 37 38 39 40 41 42 43 44 45 46 47 48 49 50
000
ASHW40 PHFO 281443
RWRHI

WEATHER ROUNDUP FOR HAWAII
NATIONAL WEATHER SERVICE HONOLULU HI
400 AM HST TUE APR 28 2015

THIS IS AN AUTOMATED REPORT THAT HAS NOT BEEN QUALITY CONTROLLED.

NOTE..."FAIR" INDICATES FEW OR NO CLOUDS BELOW 12,000 FEET WITH NO
SIGNIFICANT WEATHER AND/OR OBSTRUCTIONS TO VISIBILITY.

* - THESE SITES REPORT LIMITED FIELDS

HIZ001>004-281500-
KAUAI-NIIHAU-

CITY           SKY/WX    TMP DP  RH WIND       PRES   REMARKS
LIHUE APT      CLOUDY    73  66  78 NE18      30.10S
PORT ALLEN*      N/A     73 N/A N/A E10         N/A
POIPU*           N/A     72 N/A N/A NE9G18      N/A
PRINCEVILLE*     N/A     72 N/A N/A MISG        N/A
KOKOLE POINT*  NOT AVBL
MOLOAA DAIRY*  NOT AVBL
WAIMEA HTS*      N/A     70  63  78 NW3         N/A
PUU OPAE*        N/A     63  59  88 N3          N/A
PUU LUA*       NOT AVBL
MAKAHA RIDGE*    N/A     64  59  82 CALM        N/A
$$

HIZ005>011-281500-
OAHU-

CITY           SKY/WX    TMP DP  RH WIND       PRES   REMARKS
HONOLULU       MOCLDY    69  68  96 NE7       30.05S
KALAELOA       MOCLDY    71  66  84 CALM      30.06S
KANEOHE MCB    CLOUDY    74  68  81 E14G20    30.05R
WHEELER FIELD  DRIZZLE   68  66  94 VRB2      30.06
BELLOWS*         N/A    N/A N/A N/A NE21        N/A
KAHUKU*          N/A    N/A N/A N/A NE8G20      N/A
WHEELER*       NOT AVBL
WAIANAE HARBOR NOT AVBL
DILLINGHAM*      N/A     70  68  94 MISG        N/A
KAHUKU TRN*      N/A     70  68  94 E13G26      N/A
KAWAILOA*        N/A     68  64  88 E14G30      N/A
KII*             N/A     73  68  83 NE20G28     N/A
MAKUA RANGE*     N/A     72  68  88 E10G18      N/A
OAHU FOREST NW   N/A    N/A N/A N/A CALM        N/A
SCHOFIELD BRK*   N/A     66  66 100 MISG        N/A
SCHOFIELD S*   NOT AVBL
WAIANAE VLY*     N/A     70  66  88 N3G17       N/A
KUAOKALA*        N/A     70  68  94 NE21G35     N/A
HONOULIUULI*   NOT AVBL
MOKUOLOE IS*     N/A    N/A N/A N/A MISG        N/A
PALEHUA*         N/A    N/A N/A N/A NE12G22     N/A
WAIAWA PHB*    NOT AVBL
$$

HIZ012>013-281500-
MOLOKAI-

CITY           SKY/WX    TMP DP  RH WIND       PRES   REMARKS
MOLOKAI AIRPT  MOCLDY    72  68  88 NE10G21   30.06R
KALAUPAPA      NOT AVBL
MAKAPULAPAI*     N/A     72  68  88 E18G26      N/A
MOLOKAI 1*       N/A     64  61  88 NE8G22      N/A
PUU ALII*        N/A     58  58 100 CALM        N/A
$$

HIZ016-281500-
KAHOOLAWE-

CITY           SKY/WX    TMP DP  RH WIND       PRES   REMARKS
KAHOOLAWE*       N/A     66 N/A N/A N3          N/A
HAKIOAWA*        N/A     69  68  95 MISG      30.46R
HONOKANAIA*      N/A     73  65  74 NE6G14    30.05R
KANELOA*         N/A     72  68  88 MISG      29.25F
KEALIALALO*      N/A     70  66  88 NE5G13    30.04S
LUA MAKIKA*    NOT AVBL
$$

HIZ014>015-281500-
LANAI-

CITY           SKY/WX    TMP DP  RH WIND       PRES   REMARKS
LANAI CITY     FAIR      68  65  90 NE21G35   30.06R
LANAI 1*         N/A     68  68 100 NE22G31     N/A
$$

HIZ017>028-281500-
MAUI-

CITY           SKY/WX    TMP DP  RH WIND       PRES   REMARKS
KAHULUI        CLEAR     72  66  81 NE14      30.05R
KAPALUA-W MAUI NOT AVBL
HANA AIRPORT   CLOUDY    70  68  94 CALM      30.10R FOG
HANA*            N/A     72 N/A N/A E3          N/A
HALEAKALA SUMM   N/A     37  36  93 NE12G33     N/A  WCI  30
MAALAEA BAY*   NOT AVBL
HALEAKALA*     NOT AVBL
KAUPO GAP*       N/A     61  52  72 N14G22      N/A
KULA 1*          N/A     48  43  81 E5G10       N/A
$$

HIZ023>026-281500-
BIG ISLAND OF HAWAII COAST AND LOWER SLOPES-

CITY           SKY/WX    TMP DP  RH WIND       PRES   REMARKS
KAILUA KONA    PTCLDY    74  65  73 NE7       29.98S
HILO           CLOUDY    70  66  87 W6        30.05S
HONOKAA*       NOT AVBL
KAWAIHAE MWT*    N/A     73 N/A N/A NE3         N/A
KAWAIHAE*        N/A     73 N/A N/A NE3         N/A
SOUTH POINT*     N/A     68 N/A N/A NE12        N/A
UPOLU AIRPORT*   N/A    N/A N/A N/A E15G21      N/A
KAMUELA*       SUNNY     63  59  88 NE17      30.11R
HAKALAU*         N/A     51  51 100 CALM        N/A
KALOKO-HONOKO*   N/A     72  64  78 NE3       29.98R
PALI 2*          N/A     63  55  77 N17G25      N/A
KEALAKOMO*       N/A     75  63  64 N16G23      N/A
KAUPULEHU*       N/A     66  61  82 SE6         N/A
KAPAPALA*        N/A     61  58  91 N3          N/A
LOWER KAHUKU*    N/A     57  57 100 N2          N/A
PUHE CS*         N/A     72  64  78 NE3         N/A
PUHO CS*         N/A     71  32  23 E2          N/A
PTA KEAMUKU*     N/A     57  50  77 CALM        N/A
WAIKOLOA*        N/A     72  61  68 E21G26      N/A
$$

HIZ027>028-281500-
BIG ISLAND OF HAWAII INTERIOR AND SUMMMITS-

CITY           SKY/WX    TMP DP  RH WIND       PRES   REMARKS
BRADSHAW FIELD CLOUDY    48  43  83 SE6       30.31S
MK VISITOR CEN NOT AVBL
MAUNA KEA*       N/A     32 -27   7 SE26        N/A  WCI  18
MAUNA LOA*       N/A     36  14  41 MISG        N/A
MAUNA LOA 1*   NOT AVBL
PTA KIPUKA*      N/A     50  50 100 E3          N/A
PTA RANGE 17*    N/A     54  50  87 E12G17      N/A
PTA WEST*        N/A     72  68  88 SE8         N/A
NENE CABIN*      N/A     45 N/A N/A NE3         N/A
AHUMOA*          N/A     48  41  76 E3G9        N/A
PTA PORTABLE*  NOT AVBL
PUU MALI*        N/A     52  46  82 E18G28      N/A
$$

HIC003-281500-
NORTHWEST ISLANDS-

CITY           SKY/WX    TMP DP  RH WIND       PRES   REMARKS
MIDWAY ISLAND  CLEAR     66  61  82 E21       30.28F
MIDWAY NOS*    NOT AVBL
FRENCH FRIGATE NOT AVBL
$$

PHZ110>124-180-281500-
BUOY REPORTS

STATION/POSITION TIME  TEMP    WIND        PRES    WAVE   SWELL
                       AIR SEA DIR/SP/G            HT/PER HT/DIR
                 (UTC) (F)     (DEG/KT/KT) (MB)    (FT/S) (FT/D)
BUOY 51001       NOT AVBL
BUOY 51101       1400   72 75   70/ 21/ 25 1021.1F  12/10   8/ 20
BUOY 51100       1300   72 75   80/ 21/ 27 1021.4F
BUOY 51002       1400   78 79   90/ 17/ 21 1014.6S   8/13   7/340
BUOY 51003       1400   77 79   70/ 17/ 21 1015.8F  10/11   8
BUOY 51004       1339   76 78   70/ 17/ 21 1015.1R   7/13   5/340
BARBERS PT BUOY  NOT AVBL
WAIMEA BAY BUOY  1400      76                N/A    12/10   7/340
KAILUA BAY BUOY  1400      77                N/A    11/11   7/360
LANAI BUOY       1400      77                N/A     4/11   2/290
BARBERS PT 2     1400      78                N/A     5/11   3/290
PAUWELA MAUI     1400      77                N/A    12/12   8/350
HILO             1400      77                N/A    10/12   7/360
KANEOHE BAY BUOY 1400      77                N/A    11/11   7/360
HANALEI KAUAI    1400      76                N/A    12/11   7/ 10
KAHULUI HARBOR   1400   73 77   50/ 14/ 18 1017.5R
HONOLULU HARBOR  1400   73 78  120/  2/  4 1017.6R
KILO NALU        NOT AVBL
HILO HARBOR      1400   71 76  240/  2/  3 1017.4R
MOKUOLOE         1400   75 78   80/ 16/ 20 1018.1R
NAWILIWILI       1400   73 77   60/ 15/ 19 1018.7R
WHOTS BUOY       NOT AVBL
BUOY 51028       NOT AVBL
$$

......................KEY........................................
  SKY/WX - SKY CONDITIONS/PRESENT WEATHER
  TMP    - TEMPERATURE IN FAHRENHEIT
  DWPT   - DEWPOINT IN FAHRENHEIT
  RH     - RELATIVE HUMIDITY IN PERCENT
  WIND   - DIRECTION AND SPEED /MPH FOR ISLANDS...KTS FOR BUOYS/
  PRES   - MEAN SEA LEVEL PRESSURE IN INCHES OF HG
  VSB    - VISIBILITY IN MILES
  HX     - HEAT INDEX
  WCI    - WIND CHILL INDEX
  VRB    - VARIABLE WIND DIRECTION
  N/A    - NOT AVAILABLE



USA.gov is the U.S. government's official web portal to all federal, state and local government web resources and services.